Location: Carrières
(48.9495°N, 2.0407°E)
Time: 19:08:56
(UTC+00:00)

Altair - Pass Details

Date: 25 April 2024
Orbit: 1502 x 1682 km, 47.2° (Epoch: 21 May)

Event Time Altitude Azimuth Distance (km) Brightness Sun altitude
Rises 19:26:24 0° 258° (WSW) 4,922 11.1 -4.9°
Reaches altitude 10° 19:29:35 10° 258° (WSW) 3,924 10.5 -5.3°
Maximum altitude 19:39:39 81° 174° (S) 1,657 7.7 -6.8°
Drops below altitude 10° 19:49:23 10° 89° (E) 3,799 9.1 -8.1°
Enters shadow 19:51:57 - 88° (E) 4,609 9.5 -8.5°
